Regional Weather Roundup
Issued by NWS

Home | Current Version | Previous Version | Text Only | Print | Product List | Glossary On
Versions: 1 2 3 4 5 6 7 8 9 10 11 12 13 14 15 16 17 18 19 20 21 22 23 24 25 26 27 28 29 30 31 32 33 34 35 36 37 38 39 40 41 42 43 44 45 46 47 48 49 50
000
ASUS45 KBOI 031310
RWRID

IDAHO REGIONAL WEATHER ROUNDUP
NATIONAL WEATHER SERVICE BOISE ID
600 AM MST SAT DEC 03 2016

NOTE: "FAIR" INDICATES FEW OR NO CLOUDS BELOW 12000 FEET
WITH NO SIGNIFICANT WEATHER AND/OR OBSTRUCTIONS TO VISIBILITY

IDZ012-014-031400-
SOUTHWEST IDAHO


CITY           SKY/WX    TMP DP  RH WIND       PRES   REMARKS
BOISE          CLOUDY    35  25  66 SE3       30.23S
CALDWELL       PTCLDY    29  24  82 SE6       30.26S WCI  23
MOUNTAIN HOME  CLOUDY    31  26  81 E5        30.23S WCI  26
$$

IDZ016-017-031400-
SOUTHCENTRAL IDAHO


CITY           SKY/WX    TMP DP  RH WIND       PRES   REMARKS
BURLEY         CLOUDY    30  19  63 SW6       30.21R WCI  24
JEROME         CLOUDY    30  21  69 SW3       30.23R
TWIN FALLS     CLOUDY    32  17  54 S6        30.22R WCI  26
$$

IDZ019>023-031400-
SOUTHEAST IDAHO


CITY           SKY/WX    TMP DP  RH WIND       PRES   REMARKS
IDAHO FALLS    CLOUDY    25  18  74 S5        30.19R WCI  19
POCATELLO      CLOUDY    30  18  60 SW13      30.20R WCI  20
REXBURG        CLOUDY    24  20  84 SW5       30.18R WCI  18
$$

IDZ006-010-011-018-031-032-031400-
CENTRAL IDAHO MOUNTAINS


CITY           SKY/WX    TMP DP  RH WIND       PRES   REMARKS
MCCALL         CLOUDY    25  21  85 CALM      30.15S
HAILEY         PTCLDY    19  18  93 NW5       30.16S WCI  13
STANLEY          N/A     24  20  84 W3        30.13R
SALMON         CLOUDY    27  25  93 CALM      30.11F
CHALLIS        CLOUDY    25  21  85 SW5       30.10R WCI  19
$$

IDZ002-004-006-007-026-031400-
NORTHERN IDAHO


CITY           SKY/WX    TMP DP  RH WIND       PRES   REMARKS
LEWISTON       CLOUDY    42  33  70 S10       30.13R
LOWELL           N/A     33  31  92 CALM      30.19S
COEUR D`ALENE  CLOUDY    35  34  96 SW3       30.07R
MULLAN PASS    LGT SNOW  25  23  92 MISG      29.93R VSB 3/4
$$



USA.gov is the U.S. government's official web portal to all federal, state and local government web resources and services.